Location: New Romney
(50.9833°N, 0.9333°E)
Time: 14:22:33
(UTC+00:00)

Daily predictions for brighter satellites

Satellite Brightness Start Highest point End
(mag) Time Altitude Azimuth Time Altitude Azimuth Time Altitude Azimuth
Cosmos 2360 Rocket 4.5 18:48:19 10° W 18:52:56 25° NW 18:57:33 10° NNE
SL-08 ROCKET BODY 4.5 18:48:05 10° N 18:54:16 78° E 19:00:19 10° SSE
Cosmos 1269 Rocket 4.5 18:49:56 10° S 18:54:49 39° ESE 18:59:43 10° NE
STARLINK-1235 3.2 18:52:24 10° SW 18:55:28 51° SSE 18:58:33 10° ENE
CZ-4C R/B 3.7 18:50:24 10° W 18:55:32 38° NNW 19:01:39 10° NE
STARLINK-1199 3.3 18:53:47 10° SW 18:56:47 43° SSE 18:59:49 10° ENE
STARLINK-1191 3.3 18:54:14 10° SW 18:57:14 44° SSE 19:00:16 10° ENE
STARLINK-1210 3.3 18:54:41 10° SW 18:57:41 44° SSE 19:00:43 10° ENE
STARLINK-1102 3.7 18:53:36 10° WNW 18:57:46 78° NNE 19:01:55 10° E
STARLINK-1221 3.3 18:55:08 10° SW 18:58:08 44° SSE 19:01:10 10° ENE
STARLINK-1219 3.3 18:55:35 10° SW 18:58:35 45° SSE 19:01:38 10° ENE
ISS -3.7 18:55:37 10° W 18:58:59 81° N 19:02:22 10° E
STARLINK-1222 3.3 18:56:02 10° SW 18:59:03 45° SSE 19:02:04 10° ENE
STARLINK-1211 3.3 18:56:29 10° SW 18:59:30 45° SSE 19:02:31 10° ENE
STARLINK-1214 3.3 18:56:55 10° SW 18:59:56 45° SSE 19:02:58 10° ENE
STARLINK-1245 3.3 18:57:24 10° SW 19:00:23 46° SSE 19:03:24 10° ENE
Cosmos 2297 3.7 18:54:43 10° NNW 19:00:25 76° ENE 19:06:07 10° SE
STARLINK-1094 4.2 18:56:38 10° WNW 19:00:35 50° SSW 19:04:30 10° SE
YAOGAN 1 4.1 18:56:29 10° S 19:00:35 41° W 19:04:42 10° NNW
STARLINK-1238 3.3 18:57:47 10° SW 19:00:49 46° SSE 19:03:51 10° ENE
STARLINK-1269 4.2 18:57:32 10° SSW 19:01:18 37° SE 19:05:06 10° ENE
BREEZE-M DEB (TANK) 4.4 18:51:20 10° W 19:01:41 80° S 19:05:08 10° E
STARLINK-1205 3.2 18:58:42 10° SW 19:01:42 47° SSE 19:04:44 10° ENE
STARLINK-1204 3.2 18:59:11 10° SW 19:02:11 47° SSE 19:05:12 10° ENE
Cosmos 2084 Rocket 4.2 18:58:09 10° NW 19:02:26 43° NE 19:06:43 10° ESE
STARLINK-1111 3.7 18:58:36 10° WNW 19:02:45 80° NNE 19:06:55 10° ESE
Cosmos 1455 Rocket 3.1 18:58:32 10° S 19:02:46 54° E 19:07:03 10° NNE
STARLINK-1117 4.3 19:01:30 10° WNW 19:05:24 47° SSW 19:09:18 10° SE
STARLINK-1200 4.1 19:02:16 10° SW 19:06:06 40° SSE 19:09:56 10° ENE
S3M 4.1 19:00:24 10° S 19:06:46 82° E 19:13:13 10° NNE
Cosmos 2237 Rocket 2.3 19:01:28 10° SSW 19:07:06 88° WNW 19:12:47 10° NNE
Cosmos 1892 Rocket 3.9 19:03:06 10° NNW 19:07:34 74° W 19:12:03 10° S
STARLINK-1073 3.7 19:03:35 10° WNW 19:07:45 82° NNE 19:11:53 10° ESE
CZ-2C R/B 3.9 19:04:30 10° NE 19:08:01 18° E 19:11:31 10° SE
Cosmos 1626 Rocket 3.9 19:04:05 10° N 19:08:20 44° ENE 19:12:31 10° SSE
STARLINK-1078 4.4 19:05:57 10° WNW 19:09:50 44° SSW 19:13:42 10° SE
NOSS 2-1 (C) 3.7 19:06:39 10° WSW 19:10:01 58° NW 19:13:52 10° NE
STARLINK-1192 4.0 19:06:58 10° SW 19:10:50 42° SSE 19:14:43 10° ENE
Cosmos 1805 3.4 19:07:02 10° SSW 19:10:57 79° W 19:14:53 10° N
Cosmos 2278 Rocket 4.0 19:06:11 10° NW 19:11:12 33° WSW 19:16:12 10° SSW
Meteor 2-5 Rocket 4.2 19:06:15 10° NNW 19:11:53 65° W 19:17:23 10° S
STARLINK-1121 3.6 19:08:33 10° WNW 19:12:43 85° NNE 19:16:39 11° ESE
NOSS 2-1 (D) 3.9 19:10:53 10° WSW 19:14:15 53° NW 19:18:05 10° NE
STARLINK-1244 4.0 19:11:50 10° SW 19:15:44 45° SSE 19:19:39 10° ENE
Cosmos 1602 Rocket 4.0 19:12:03 10° N 19:16:21 42° ENE 19:20:33 10° SE
ARGOS 3.2 19:11:40 10° SSE 19:17:02 71° ENE 19:22:25 10° NNW
STARLINK-1106 3.6 19:13:31 10° WNW 19:17:41 88° NNE 19:21:25 13° ESE
Okean 1-7 Rocket 4.1 19:15:14 10° NNW 19:19:37 64° W 19:23:57 10° S
STARLINK-1138 3.9 19:16:22 10° SW 19:20:19 48° SSE 19:24:16 10° ENE
STARLINK-1234 2.7 19:18:13 10° WSW 19:21:11 75° SSE 19:24:04 11° ENE
STARLINK-1112 3.6 19:18:31 10° WNW 19:22:41 89° SSW 19:26:14 14° ESE
Cosmos 494 Rocket 4.0 19:17:55 10° SSW 19:23:05 86° ESE 19:28:19 10° NNE
Meteor 1-24 Rocket 4.0 19:17:37 10° NNW 19:23:10 70° W 19:28:30 10° S
USA 186 1.9 19:20:46 10° SSE 19:24:12 88° ENE 19:27:35 10° NNW
STARLINK-1143 3.8 19:21:13 10° SW 19:25:12 51° SSE 19:29:11 10° ENE
STARLINK-1128 3.6 19:23:30 10° WNW 19:27:40 86° SSW 19:31:01 15° ESE
MetOp-A 4.4 19:22:35 10° SE 19:27:46 52° ENE 19:32:58 10° N
CZ-2C R/B 2.9 19:24:25 10° SSE 19:29:26 89° WSW 19:34:18 10° NNW
Cosmos 1544 Rocket 3.5 19:25:57 10° S 19:30:21 78° E 19:34:48 10° NNE
Cosmos 1437 4.3 19:28:24 10° NNE 19:30:34 17° ENE 19:31:25 16° E
Cosmos 1470 2.9 19:28:36 10° S 19:32:21 50° E 19:36:09 10° NNE
STARLINK-1113 3.6 19:28:29 10° WNW 19:32:38 83° SSW 19:35:47 17° ESE
STARLINK-1241 3.7 19:29:32 10° SW 19:33:30 56° SSE 19:37:12 12° ENE
Cosmos 883 Rocket 4.5 19:29:35 10° S 19:35:47 83° E 19:42:06 10° N
SPOT 3 Rocket 3.6 19:31:02 10° SSE 19:36:12 66° ENE 19:41:23 10° N
STARLINK-1119 3.6 19:33:27 10° WNW 19:37:37 79° SSW 19:40:34 19° ESE
MOS 1 4.5 19:32:30 10° SSE 19:38:09 77° WSW 19:43:51 10° NNW
STARLINK-1239 3.6 19:34:25 10° SW 19:38:24 59° SSE 19:41:56 13° ENE
Cosmos 2369 Rocket 2.5 19:33:10 10° NNW 19:38:47 54° NE 19:43:14 16° SE
SJ-6B 3.0 19:38:14 10° S 19:42:19 80° WSW 19:46:29 10° NNW
STARLINK-1114 3.6 19:38:29 10° WNW 19:42:38 76° SSW 19:45:24 20° ESE
STARLINK-1240 3.6 19:39:06 10° SW 19:43:07 63° SSE 19:46:29 14° ENE
Cosmos 1733 4.1 19:39:37 10° SSW 19:43:18 51° WNW 19:47:02 10° N
Aureole 2 Rocket 2.9 19:40:42 10° NNW 19:44:05 44° ENE 19:45:56 22° ESE
Cosmos 1726 3.3 19:42:56 20° ESE 19:44:13 24° E 19:47:16 10° NE
Cosmos 1758 Rocket 4.1 19:41:03 10° N 19:45:11 39° ENE 19:47:54 19° SE
Ariane Rocket 3.9 19:40:32 10° S 19:45:28 50° W 19:50:25 10° NNW
Cosmos 1758 3.3 19:42:16 10° S 19:46:20 67° E 19:50:25 10° NNE
STARLINK-1130 (DARKSAT) 3.7 19:43:27 10° WNW 19:47:35 72° SSW 19:50:10 22° ESE
STARLINK-1216 3.5 19:43:50 10° WSW 19:47:51 66° SSE 19:51:02 16° ENE
CZ-2C R/B 3.8 19:43:48 10° NNE 19:48:31 56° E 19:53:08 10° S
ATLAS CENTAUR R/B 4.1 19:47:30 10° NW 19:49:51 14° NNW 19:52:07 10° NNE
STARLINK-1209 2.8 19:48:11 10° WSW 19:51:07 77° NNW 19:52:50 22° ENE
STARLINK-1084 3.7 19:48:25 10° WNW 19:52:33 69° SSW 19:54:56 24° SE
STARLINK-1237 3.5 19:48:35 10° WSW 19:52:37 70° SSE 19:55:38 17° ENE
STARLINK-1228 2.7 19:50:23 10° W 19:53:16 75° NNW 19:54:51 24° ENE
Cosmos 2184 Rocket 4.1 19:48:01 10° N 19:54:16 57° ENE 19:59:37 14° SSE
IRIDIUM 106 4.3 19:49:21 10° N 19:54:34 67° E 19:59:46 10° SSE
Terra 3.8 19:53:53 12° ENE 19:55:20 13° NE 19:57:29 10° NNE
NOSS 2-2 (D) 4.5 19:50:51 10° NW 19:56:18 88° NE 20:01:57 18° SE
STARLINK-1202 3.5 19:53:18 10° WSW 19:57:21 73° SSE 20:00:11 19° ENE
STARLINK-1098 3.8 19:53:24 10° WNW 19:57:31 65° SSW 19:59:43 26° SE
Spot 2 Rocket 4.2 19:55:42 22° ESE 19:58:24 37° ENE 20:03:04 10° N
Cosmos 1943 Rocket 2.1 19:54:42 10° NNW 20:00:17 90° SSE 20:04:35 17° SSE
Cosmos 1606 Rocket 4.4 19:59:07 25° ESE 20:00:26 29° E 20:04:18 10° NNE
Meteor 1-21 Rocket 4.1 19:55:15 10° N 20:00:52 81° ENE 20:06:07 11° SSE
ERBS 3.7 19:58:32 10° W 20:01:42 35° NNW 20:04:36 12° NE
STARLINK-1123 3.8 19:58:23 10° WNW 20:02:29 62° SSW 20:04:30 28° SE
Cosmos 1943 4.0 20:01:04 16° SSE 20:04:26 28° ESE 20:09:11 10° NE
STARLINK-67 2.8 20:01:57 10° W 20:04:30 57° N 20:05:16 37° NE
STARLINK-1246 3.5 20:00:28 10° WSW 20:04:34 79° SSE 20:07:12 21° ENE
SL-8 R/B 3.8 20:00:29 10° W 20:05:12 61° S 20:07:34 28° ESE
Meteor 2-10 4.3 20:01:39 10° SSE 20:06:48 49° E 20:12:09 10° NNE
STARLINK-1201 3.0 20:03:55 10° WSW 20:07:12 79° NNW 20:08:41 30° ENE
STARLINK-1097 3.9 20:03:21 10° WNW 20:07:27 58° SSW 20:09:16 30° SE
Cosmos 1626 4.1 20:04:31 10° NNW 20:07:47 29° W 20:11:02 10° SSW
Resurs 1-3 3.6 20:05:32 14° SSE 20:09:19 83° WSW 20:13:45 10° NNW
ATLAS 2AS CENTAUR R/B 3.3 20:02:05 10° NW 20:09:44 53° NNE 20:14:22 23° ESE
STARLINK-1224 3.5 20:07:35 10° WSW 20:11:39 83° SSE 20:13:57 25° ENE
STARLINK-1099 4.0 20:08:21 10° WNW 20:12:25 55° SSW 20:14:04 32° SSE
STARLINK-1203 3.4 20:08:58 10° WSW 20:12:57 88° SSE 20:15:06 26° ENE
Cosmos 2315 Rocket 4.4 20:08:21 10° SSW 20:14:38 68° WNW 20:21:01 10° N
Cosmos 2154 Rocket 4.2 20:09:07 10° N 20:15:21 54° ENE 20:18:59 25° SE
USA 234 3.2 20:09:25 10° ENE 20:15:54 61° SE 20:22:22 10° SW
H-2A R/B 3.6 20:11:22 10° SSW 20:16:12 35° W 20:20:56 10° NNW
STARLINK-1225 3.5 20:12:10 10° WSW 20:16:15 86° SSE 20:18:23 27° ENE
STARLINK-1104 4.0 20:13:21 10° WNW 20:17:23 52° SSW 20:18:51 34° SSE
USA 245 4.5 20:15:17 29° ESE 20:17:36 48° ENE 20:23:19 10° N
DMSP B5D2-2 4.0 20:12:49 10° NNE 20:18:04 74° ESE 20:23:16 10° S
Aureole 3 3.7 20:14:04 10° S 20:18:13 88° W 20:23:37 10° N
Resurs 01 Rocket 1.5 20:16:28 23° SSE 20:19:14 89° ENE 20:23:40 10° NNW
Cosmos 1328 4.0 20:15:36 10° N 20:19:31 49° ENE 20:20:25 41° ESE
Meteor 2-15 Rocket 4.5 20:13:34 10° SSW 20:19:38 83° W 20:25:46 10° N
STARLINK-1233 3.0 20:17:04 10° W 20:20:12 70° NNW 20:21:02 44° ENE
STARLINK-1212 3.0 20:17:32 10° W 20:20:40 69° NNW 20:21:27 45° NE
Cosmos 921 Rocket 4.5 20:17:37 10° N 20:20:50 21° NE 20:21:21 20° ENE
STARLINK-1230 3.5 20:16:55 10° WSW 20:21:00 89° S 20:22:57 30° ENE
STARLINK-1105 3.1 20:17:58 10° W 20:21:06 69° NNW 20:21:54 45° NE
STARLINK-1206 3.0 20:18:28 10° W 20:21:35 69° NNW 20:22:19 47° NE
SL-16 R/B 2.6 20:16:01 10° SW 20:21:39 65° WNW 20:27:19 10° NNE
STARLINK-1247 3.0 20:18:55 10° W 20:22:01 69° NNW 20:22:44 47° NE
STARLINK-1144 4.1 20:18:21 10° WNW 20:22:21 49° SSW 20:23:38 35° SSE
STARLINK-1227 3.1 20:19:20 10° W 20:22:28 69° NNW 20:23:12 47° NE
Abrixas rocket 4.3 20:20:05 10° SSW 20:20:46 14° SSW 20:20:46 14° SSW
STARLINK-1218 3.0 20:19:49 10° W 20:22:56 68° N 20:23:36 48° NE
STARLINK-1226 3.1 20:20:15 10° W 20:23:22 68° NNW 20:24:03 48° NE
Cosmos 2228 3.3 20:22:40 39° SE 20:23:29 44° E 20:27:36 10° NNE
STARLINK-1254 3.1 20:20:41 10° W 20:23:49 68° N 20:24:30 48° NE
STARLINK-1215 3.1 20:21:10 10° W 20:24:17 68° NNW 20:24:54 50° NE
STARLINK-1231 3.1 20:21:36 10° W 20:24:43 67° N 20:25:19 51° NE
STARLINK-1232 3.1 20:22:31 10° W 20:25:38 67° N 20:26:12 52° NE
STARLINK-1243 3.5 20:21:45 10° WSW 20:25:51 88° N 20:27:36 33° ENE
STARLINK-1217 3.1 20:22:59 10° W 20:26:05 67° NNW 20:26:38 52° NE
STARLINK-1208 3.1 20:23:23 10° W 20:26:31 67° N 20:27:05 52° NE
STARLINK-1229 3.1 20:23:52 10° W 20:26:59 66° N 20:27:30 53° NE
STARLINK-1103 4.2 20:23:19 10° WNW 20:27:18 46° SSW 20:28:25 36° SSE
Cosmos 1953 2.3 20:23:23 10° SSW 20:27:21 82° WNW 20:31:22 10° N
STARLINK-1271 3.1 20:24:19 10° W 20:27:26 66° N 20:27:56 54° NE
STARLINK-1270 3.1 20:24:47 10° W 20:27:54 66° NNW 20:28:22 54° NE
STARLINK-1154 3.1 20:25:14 10° W 20:28:21 66° N 20:28:48 55° NE
STARLINK-1197 3.1 20:26:08 10° W 20:29:15 66° N 20:29:40 56° NE
STARLINK-1189 3.1 20:26:35 10° W 20:29:42 65° N 20:30:06 57° NE
Cosmos 1992 Rocket 4.2 20:24:48 10° NNW 20:30:00 69° WSW 20:33:07 24° S
STARLINK-1187 3.2 20:27:27 10° W 20:30:34 63° N 20:30:59 55° NE
STARLINK-1198 3.1 20:27:29 10° W 20:30:35 65° N 20:30:58 58° NNE
STARLINK-1188 3.1 20:27:30 10° W 20:30:36 65° N 20:30:59 58° NNE
STARLINK-1236 3.5 20:26:32 10° WSW 20:30:38 85° NNW 20:32:12 37° ENE
STARLINK-1235 3.2 20:28:09 10° W 20:31:17 61° N 20:31:42 54° NNE
STARLINK-1101 4.3 20:28:19 10° WNW 20:32:15 43° SSW 20:33:11 37° S
STARLINK-1199 3.1 20:29:26 10° W 20:32:34 65° N 20:32:54 59° NNE
STARLINK-1191 3.1 20:29:53 10° W 20:33:00 64° N 20:33:19 59° NNE
STARLINK-1210 3.1 20:30:21 10° W 20:33:28 64° N 20:33:46 59° NNE
STARLINK-1221 3.1 20:30:47 10° W 20:33:55 64° N 20:34:12 60° NNE
STARLINK-1219 3.1 20:31:15 10° W 20:34:23 64° N 20:34:38 60° NNE
Nadezhda 1 Rocket 4.1 20:29:47 19° SSE 20:34:25 60° E 20:40:41 10° NNE
STARLINK-1222 3.1 20:31:42 10° W 20:34:50 64° N 20:35:04 61° NNE
STARLINK-1211 3.1 20:32:09 10° W 20:35:16 64° N 20:35:30 61° NNE
ISS -3.1 20:32:30 10° W 20:35:39 44° SSW 20:35:39 44° SSW
STARLINK-1214 3.1 20:32:36 10° W 20:35:44 63° N 20:35:56 61° NNE
STARLINK-1245 3.1 20:33:05 10° W 20:36:11 63° N 20:36:20 62° N
STARLINK-1238 3.1 20:33:28 10° W 20:36:36 63° N 20:36:46 61° NNE
STARLINK-1102 4.3 20:33:18 10° WNW 20:37:12 40° SW 20:37:58 36° S
STARLINK-1205 3.1 20:34:24 10° W 20:37:30 63° N 20:37:37 62° N
STARLINK-1204 3.1 20:34:53 10° W 20:37:59 62° N 20:38:03 62° N
STARLINK-1269 3.6 20:36:27 10° WSW 20:40:32 80° NNW 20:41:43 45° ENE
Cosmos 2084 Rocket 4.5 20:37:45 10° NW 20:41:57 40° SW 20:43:31 30° S
Cosmos 2058 Rocket 3.7 20:42:37 39° ENE 20:42:37 39° ENE 20:46:24 10° NNE
STARLINK-1111 4.4 20:38:19 10° WNW 20:42:10 38° SW 20:42:45 36° SSW
MetOp-B 4.1 20:40:10 32° SSE 20:42:44 89° ENE 20:48:08 10° NNW
Cosmos 1703 3.2 20:39:10 10° N 20:43:08 90° WSW 20:43:49 60° S
Cosmos 1603 3.6 20:37:50 10° SSW 20:43:24 64° ESE 20:48:58 10° NE
Cosmos 2251 Rocket 3.5 20:38:59 10° SSW 20:44:21 88° ESE 20:49:47 10° NNE
SPOT 5 3.4 20:44:26 35° ENE 20:44:32 35° ENE 20:48:29 10° N
Meteor 1-16 Rocket 4.0 20:40:19 14° S 20:44:54 84° E 20:50:26 10° NNE
STARLINK-1200 3.6 20:41:17 10° W 20:45:22 78° NNW 20:46:21 50° ENE
CZ-4C R/B 4.2 20:40:38 10° NW 20:45:50 28° N 20:51:51 10° ENE
Cosmos 2074 Rocket 4.4 20:41:39 10° NNW 20:47:51 64° W 20:53:00 15° S
CZ-2C R/B 2.7 20:43:44 10° NNE 20:48:56 76° WNW 20:54:05 10° SSW
IGS 5A 3.4 20:49:02 61° E 20:49:15 63° ENE 20:53:24 10° N
ERS-1 Rocket 3.2 20:48:38 45° E 20:49:27 50° ENE 20:54:19 10° N
STARLINK-1192 3.6 20:46:02 10° W 20:50:08 76° NNW 20:50:56 55° NE
Landsat 7 3.8 20:49:39 54° SE 20:50:37 69° ENE 20:55:22 10° N
STARLINK-1244 3.7 20:51:00 10° W 20:55:04 74° NNW 20:55:40 61° NE
STARLINK-1234 4.2 20:53:38 10° W 20:55:44 38° WNW 20:55:44 38° WNW
STARLINK-1138 3.7 20:55:33 10° W 20:59:38 72° N 21:00:03 65° NE
Cosmos 1656 Rocket 3.6 20:54:45 10° NNW 21:00:28 84° WSW 21:02:03 49° SSE
MOS 1 Rocket 4.1 20:55:59 10° N 21:01:04 58° WNW 21:06:21 10° SSW
Meteor 1-11 4.2 20:56:35 10° NNW 21:02:26 84° W 21:04:29 42° S
Cosmos 1437 4.4 21:00:58 10° NNW 21:03:36 28° W 21:03:36 28° W
STARLINK-1143 3.7 21:00:28 10° W 21:04:33 71° N 21:04:46 69° NNE
Aureole 1 Rocket 4.4 21:01:51 32° SSE 21:05:15 55° ESE 21:11:33 10° NNE
CARTOSAT-1 3.8 21:07:29 55° NE 21:07:29 55° NE 21:11:25 10° N
Cosmos 1726 Rocket 3.7 21:10:43 58° SW 21:11:29 73° WNW 21:15:56 10° N
STARLINK-1241 3.8 21:08:42 10° W 21:12:34 67° NNW 21:12:34 67° NNW
COSMOS 2455 3.2 21:08:00 10° NNW 21:13:55 54° NE 21:15:09 46° E
STARLINK-1239 3.9 21:13:42 10° W 21:17:21 62° NW 21:17:21 62° NW
Cosmos 1726 3.9 21:17:22 19° WSW 21:19:18 30° WNW 21:22:40 10° N
Cosmos 2341 Rocket 3.9 21:14:40 10° N 21:21:05 87° E 21:22:43 54° SSE
Cosmos 1461 3.5 21:16:47 10° NW 21:20:56 53° NNE 21:20:56 53° NNE
STARLINK-1240 4.1 21:18:27 10° W 21:21:54 57° NW 21:21:54 57° NW
Cosmos 2369 Rocket 3.6 21:17:37 10° NW 21:22:35 32° WSW 21:25:03 22° SSW
Cosmos 1908 4.0 21:24:02 51° WNW 21:24:02 51° WNW 21:27:37 10° N
STARLINK-1216 4.3 21:23:12 10° W 21:26:28 51° WNW 21:26:28 51° WNW
NOSS 3-4 (A) 3.7 21:21:23 10° NW 21:28:17 84° SW 21:30:09 55° SSE
NOSS 3-4 (C) 3.7 21:21:29 10° NW 21:28:23 84° SW 21:30:14 55° SSE
ATLAS CENTAUR R/B 3.9 21:28:20 10° NNW 21:30:24 13° N 21:31:52 12° NNE
STARLINK-1237 4.5 21:28:00 10° W 21:31:05 47° WNW 21:31:05 47° WNW
Terra 2.0 21:32:46 64° NNE 21:32:46 64° NNE 21:37:01 10° N
NOSS 3-3 (A) 4.0 21:33:11 10° SW 21:39:10 77° NW 21:46:03 10° NE
NOSS 3-3 (C) 4.0 21:33:17 10° SW 21:39:16 78° NW 21:46:09 10° NE
SPOT 1/Viking Rocket 4.0 21:41:28 49° SW 21:42:09 52° W 21:47:17 10° NNW
Cosmos 1943 Rocket 4.4 21:39:49 10° WNW 21:43:15 17° W 21:46:08 12° SW
Cosmos 1943 3.6 21:42:32 10° SW 21:48:07 60° NW 21:53:47 10° NNE
Cosmos 2218 Rocket 3.8 21:41:57 10° N 21:48:10 87° E 21:48:36 78° SSE
Cosmos 1340 Rocket 4.2 21:51:02 39° NNW 21:51:02 39° NNW 21:53:55 10° N
Cosmos 1140 Rocket 4.3 21:56:03 41° NE 21:56:03 41° NE 21:59:27 10° NNE
Resurs 01 Rocket 4.3 21:54:34 10° WSW 21:56:23 12° W 21:58:12 10° WNW
USA 234 3.5 21:52:31 10° ENE 21:59:01 67° NNW 22:05:30 10° W
Cosmos 921 Rocket 4.3 21:55:21 10° NNW 21:58:09 37° NW 21:58:09 37° NW
Cosmos 2181 Rocket 3.9 22:00:16 76° SW 22:00:46 84° W 22:07:02 10° N
ATLAS 2AS CENTAUR R/B 3.0 21:53:27 10° NW 22:00:53 57° WSW 22:01:48 53° SSW
Cosmos 2058 4.5 21:59:11 10° NNW 22:01:32 33° NNW 22:01:32 33° NNW
Cosmos 407 Rocket 3.9 22:06:47 59° NNW 22:06:47 59° NNW 22:11:11 10° NNE
Iridium 4 Rocket 4.3 22:05:34 10° N 22:08:42 40° NW 22:08:42 40° NW
Cosmos 1697 Rocket 3.9 22:05:01 10° NNW 22:10:05 32° NE 22:10:12 32° NE
Mayak 0.9 22:14:08 10° NNE 22:15:32 20° NNE 22:15:32 20° NNE
SPOT 5 4.4 22:23:39 28° WNW 22:23:39 28° WNW 22:26:33 10° NNW
Cosmos 2366 rocket 4.4 22:22:54 10° NNW 22:28:52 53° W 22:28:59 53° W
Cosmos 1980 Rocket 3.6 22:30:35 10° NNW 22:35:28 29° NE 22:35:28 29° NE
CZ-4C R/B 3.7 22:29:51 10° NW 22:36:06 41° NNE 22:38:44 31° ENE
Nadezhda 3 Rocket 4.4 22:38:52 55° NE 22:38:52 55° NE 22:43:55 10° NNE
COSMOS 2455 4.0 22:54:12 10° NW 22:58:18 33° W 22:58:18 33° W
Terra 4.2 23:11:38 16° WNW 23:11:38 16° WNW 23:13:43 10° NW
ATLAS CENTAUR R/B 4.1 23:06:57 10° NNW 23:08:02 16° NNW 23:08:02 16° NNW
ATLAS 5 CENTAUR R/B 4.1 23:20:05 18° NE 23:20:05 18° NE 23:21:31 10° NE
Cosmos 1833 Rocket 4.4 23:28:31 24° NE 23:28:31 24° NE 23:30:53 10° NE
Cosmos 1605 Rocket 4.5 23:25:22 10° N 23:30:02 55° N 23:30:02 55° N
USA 234 3.9 23:35:19 10° ENE 23:41:38 53° N 23:47:57 10° WNW
Mayak 1.6 23:50:51 10° NNW 23:52:06 14° NW 23:52:06 14° NW
SL-16 R/B 4.2 23:52:44 23° ENE 23:54:04 25° NE 23:58:59 10° N
